AirNav   SIMCOM
 
 362 users online  

23LA Warner-Thunder Hill Airport
Covington, Louisiana, USA

GOING TO COVINGTON?


FAA INFORMATION EFFECTIVE 12 OCTOBER 2017

Location

FAA Identifier: 23LA
Lat/Long: 30-37-50.9500N / 090-04-48.6900W
30-37.849167N / 090-04.811500W
30.6308194 / -90.0801917
(estimated)
Elevation: 185 ft. / 56 m (estimated)
Variation: 03E (1985)
From city: 9 miles N of COVINGTON, LA
Time zone: UTC -5 (UTC -6 during Standard Time)
Zip code: 70435

Airport Operations

Airport use: Private use. Permission required prior to landing
Activation date: 06/1980
Control tower: no
ARTCC: HOUSTON CENTER
FSS: DE RIDDER FLIGHT SERVICE STATION
Attendance: DAWN-DUSK
BY APPOINTMENT ONLY.
Wind indicator: yes
Segmented circle: no

Airport Communications

WX AWOS-3PT at BXA (16 nm NE): 118.025 (985-732-6224)
WX AWOS-3PT at HDC (19 nm W): 118.325 (985-277-5670)

Nearby radio navigation aids

VOR radial/distance  VOR name  Freq  Var
PCUr278/18.5PICAYUNE VOR/DME112.2005E
HMUr069/(18.7)HAMMOND VOR109.6000E

 
NDB name  Hdg/Dist  Freq  Var  ID
BOGALUSA217/18.835300WGVB --. ...- -...

Airport Services

Airframe service: MINOR

Runway Information

Runway 10/28

Dimensions: 1900 x 50 ft. / 579 x 15 m
Surface: turf
RUNWAY 10  RUNWAY 28
Traffic pattern: leftleft
Displaced threshold: no600 ft.
Obstructions: 50 ft. trees, 600 ft. from runway50 ft. pline, 300 ft. from runway

Airport Ownership and Management from official FAA records

Ownership: Privately-owned
Owner: RICHARD M WARNER
82341 HWY 1129
COVINGTON, LA 70433
Phone 985-892-3721
Manager: RICHARD M. WARNER
82341 HWY 1129
COVINGTON, LA 70433
Phone 985-892-3721

Airport Operational Statistics

Aircraft based on the field: 3
Single engine airplanes: 3
    

Instrument Procedures

There are no published instrument procedures at 23LA.

Some nearby airports with instrument procedures:

KBXA - George R Carr Memorial Air Field (16 nm NE)
KHDC - Hammond Northshore Regional Airport (19 nm W)
KASD - Slidell Airport (22 nm SE)
KMJD - Picayune Municipal Airport (24 nm E)
M13 - Poplarville-Pearl River County Airport (31 nm E)
 
Loc | Ops | Rwys | IFR | FBO | Links
Com | Nav | Svcs | Stats | Notes


 
Area around 23LA (Warner-Thunder Hill Airport)
 
Road maps at: MapQuest Bing Google
 
Aerial photo
No photo
 
Sectional chart

 
Airport distance calculator
Flying to Warner-Thunder Hill Airport? Find the distance to fly.

From to 23LA

Sunrise and sunset
Times for 22-Oct-2017
 Local
(UTC-5)
 Zulu
(UTC)
Morning civil twilight06:4411:44
Sunrise07:0912:09
Sunset18:2123:21
Evening civil twilight18:4623:46

Current date and time
Zulu (UTC)  22-Oct-2017 09:50:27
Local (UTC-5)  22-Oct-2017 04:50:27
 
METAR
KBXA 
16nm NE 
220935Z AUTO 00000KT 10SM OVC095 23/20 A3006 RMK AO2 LTG DSNT NW T02250201
KHDC 
19nm W 
220935Z AUTO 11005KT 5SM +RA SCT019 BKN027 OVC047 23/21 A3003 RMK AO2 LTG DSNT ALQS P0001
KASD 
28nm SE 
220853Z AUTO 10004KT 10SM FEW035 BKN060 OVC085 24/22 A3002 RMK AO2 SLP164 T02440217 57011
TAF
KHDC 
19nm W 
220521Z 2206/2306 13008KT P6SM VCSH SCT015 BKN040 FM221700 15006KT 6SM SHRA SCT025 OVC045 TEMPO 2217/2221 2SM TSRA BKN025CB FM230000 15004KT P6SM BKN040 BKN090 PROB30 2300/2302 4SM -SHRA OVC040 FM230200 25004KT P6SM BKN040 BKN100 PROB30 2302/2305 4SM -SHRA OVC025 FM230500 31005KT P6SM BKN030 BKN050 PROB30 2305/2306 4SM -SHRA OVC015
NOTAMs
Click for the latest NOTAMs
NOTAMs are issued by the DoD/FAA and will open in a separate window not controlled by AirNav.

 

 
 

Would you like to see your business listed on this page?

 If your business provides an interesting product or service to pilots, flight crews, aircraft, or users of the Warner-Thunder Hill Airport, you should consider listing it here.  To start the listing process, click on the button below
 
Add a business
 

Other Pages about Warner-Thunder Hill Airport

Update a link
 
Copyright © AirNav, LLC. All rights reserved. Privacy Policy  Contact